This is the latest recevied weather packets stored in our database for station/object N7SHZ. If no packets are shown the sender has not sent any weather packets the latest 10 day(s).
| Time | Temp. | Humidity | Pressure | Rain* | Wind** | Luminosity | Snow |
|---|---|---|---|---|---|---|---|
| 1777536340 | 0° C | 72% | 1036.2 hPa | - | - | 0 W/m² | - |
| 1777536037 | 0° C | 73% | 1036.3 hPa | - | - | 0 W/m² | - |
| 1777535732 | 0° C | 71% | 1036.3 hPa | - | - | 0 W/m² | - |
| 1777535430 | 0° C | 71% | 1036.6 hPa | - | - | 0 W/m² | - |
| 1777535127 | 0° C | 72% | 1036.5 hPa | - | - | 0 W/m² | - |
| 1777534823 | 0° C | 72% | 1036.5 hPa | - | - | 0 W/m² | - |
| 1777534520 | 0° C | 75% | 1036.7 hPa | - | - | 0 W/m² | - |
| 1777534218 | -0.56° C | 77% | 1036.6 hPa | - | - | 0 W/m² | - |
| 1777533915 | -0.56° C | 77% | 1036.7 hPa | - | - | 0 W/m² | - |
| 1777533612 | 0° C | 77% | 1036.9 hPa | - | - | 0 W/m² | - |
| 1777533308 | -0.56° C | 78% | 1036.9 hPa | - | - | 0 W/m² | - |
| 1777533004 | -0.56° C | 80% | 1036.7 hPa | - | - | 0 W/m² | - |
| 1777532702 | -0.56° C | 79% | 1036.7 hPa | - | - | 0 W/m² | - |
| 1777532398 | -0.56° C | 80% | 1036.6 hPa | - | - | 0 W/m² | - |
| 1777532095 | -0.56° C | 80% | 1036.9 hPa | - | - | 0 W/m² | - |
| 1777531790 | -0.56° C | 80% | 1037 hPa | - | - | 0 W/m² | - |
| 1777531487 | -1.11° C | 84% | 1036.9 hPa | - | - | 0 W/m² | - |
| 1777531185 | -1.11° C | 84% | 1036.6 hPa | - | - | 0 W/m² | - |
| 1777530883 | -1.11° C | 83% | 1036.9 hPa | - | - | 0 W/m² | - |
| 1777530579 | -0.56° C | 82% | 1036.6 hPa | - | - | 0 W/m² | - |
| 1777530276 | -0.56° C | 82% | 1036.9 hPa | - | - | 0 W/m² | - |
| 1777529972 | -1.11° C | 85% | 1037 hPa | - | - | 0 W/m² | - |
| 1777529670 | -1.11° C | 85% | 1037 hPa | - | - | 0 W/m² | - |
| 1777529366 | -0.56° C | 84% | 1036.9 hPa | - | - | 0 W/m² | - |
| 1777529063 | -0.56° C | 85% | 1036.9 hPa | - | - | 0 W/m² | - |
* Rain since midnight (hover to see other rain measurements)
** Current wind speed in m/s (hover to see current wind gust speed)